Showing default

FLOCK 4G 8, 62613

Orbit data source: Space-Track

FLOCK 4G 8, 62613 is a payload satellite owned by Planet (US) in SSO that was launched on Tue, 14 Jan 2025 UTC via an FALCON 9 launch vehicle from the Air Force Western Test Range (AFWTR). Payload-class satellites include a variety of spacecraft equipped with specific instruments for various scientific and technological missions. These include communications satellites like Starlink; space stations such as the ISS; scientific satellites like the Hubble; Earth observation satellites from companies like Planet Labs, Umbra, and HawkEye 360; GPS; miniature CubeSats for education and research; and military/defense satellites.

Loading next visibility...
Identifier
62613, 2025-009E
Orbit
SSO
Country
Flag of USUS
Related business
Manufacturer
Planet
Mission
Operational Commercial Imaging
Bus & Motor
CUBESAT 3U, Unknown motor
Mass
5.7 kg wet, 5.7 kg dry
Launch date (UTC)
2025-01-14 (1 year ago)
Launch vehicle
FALCON 9
Launch site
Air Force Western Test Range (AFWTR)
Object type
Payload
Rocket body
Debris
Shape & HBR
Box + 2 Pan, 1.0 m
Radar Cross Section
0.072 m², Medium (>0.1 m² and < 1m²)

Expand to show TLE details & history
Last TLE update: 8 hours ago

TLE from 8 hours ago
0 FLOCK 4G 8
1 62613U 25009E   26034.19263179  .00013368  00000-0  51165-3 0  9999
2 62613  97.4112 117.0005 0005442  75.3291 284.8550 15.26671174 58454
Epoch: 2026-02-03T04:37Z
TLE epoch observation values (Epoch: 2026-02-03T04:37:23.386Z)
Latitude
-0.0001°
Longitude
-85.72402°
Altitude
487.915 km
Speed
7.622 km/s
True Right ascension
07h 48m 00s
True Declination
0° 00' 00"
Sunlit
Object was in full shadow at epoch
Visualization orbit readout
Latitude
Unknown
Longitude
Unknown
Altitude
Unknown
Speed
Unknown
Apparent Right ascension
Unknown
Apparent Declination
Unknown
Sunlit
N/A
Visualization observer readout
Local Sidereal Time
14:58:29
Azimuth
Unknown
Elevation
Unknown
Doppler factor
Unknown
Orbital elements
Apogee altitude
486.463 km
Perigee altitude
478.995 km
Semi-major axis
6,860.866 km
Eccentricity
0.00054
Inclination
97.4112°
RAAN
117.0005°
Arg. of periapsis
75.3291°
True anomaly
284.79471°
Mean anomaly
284.855°
Eccentric anomaly
284.82486°
Mean motion
3.81922 °/min
Orbital period
94.26 mins
BSTAR
0.00051165
Loading maneuver chart data...
Computing Atmospheric mass density...
Loading historical data...
Loading historical data...
Loading historical data...
Loading historical data...
Loading historical data...
Loading historical data...
Loading historical data...

Documentation

Showing up to 5 results
|